This is the latest recevied weather packets stored in our database for station/object K4MZ. If no packets are shown the sender has not sent any weather packets the latest 10 day(s).
| Time | Temp. | Humidity | Pressure | Rain* | Wind** | Luminosity | Snow |
|---|---|---|---|---|---|---|---|
| 1778164542 | 16.11° C | 94% | 1010.1 hPa | 0 mm | - | 123 W/m² | - |
| 1778163920 | 16.11° C | 94% | 1010 hPa | 0 mm | - | 162 W/m² | - |
| 1778163320 | 16.11° C | 94% | 1010.1 hPa | 0 mm | - | 226 W/m² | - |
| 1778162741 | 16.11° C | 95% | 1010.2 hPa | 0 mm | - | 172 W/m² | - |
| 1778162122 | 16.11° C | 95% | 1010.3 hPa | 0 mm | - | 159 W/m² | - |
| 1778161521 | 16.67° C | 95% | 1010.3 hPa | 0 mm | - | 65 W/m² | - |
| 1778161003 | 16.67° C | 96% | 1010.7 hPa | 0 mm | - | 53 W/m² | - |
| 1778160321 | 16.67° C | 96% | 1010.4 hPa | 0 mm | - | 83 W/m² | - |
| 1778159722 | 16.67° C | 96% | 1010.8 hPa | 0 mm | - | 49 W/m² | - |
| 1778159121 | 17.22° C | 96% | 1011 hPa | 0 mm | - | 71 W/m² | - |
| 1778158522 | 17.22° C | 97% | 1011 hPa | 0 mm | - | 54 W/m² | - |
| 1778157922 | 17.22° C | 97% | 1011 hPa | 0 mm | - | 45 W/m² | - |
| 1778157342 | 17.22° C | 96% | 1010.8 hPa | 0 mm | - | 29 W/m² | - |
| 1778156762 | 17.22° C | 96% | 1010.3 hPa | 0 mm | - | 30 W/m² | - |
| 1778156122 | 17.22° C | 96% | 1010.6 hPa | 0 mm | - | 22 W/m² | - |
| 1778155543 | 17.22° C | 96% | 1010.6 hPa | 0 mm | - | 17 W/m² | - |
| 1778154923 | 17.22° C | 96% | 1010.6 hPa | 0 mm | - | 10 W/m² | - |
| 1778154383 | 17.22° C | 96% | 1010.6 hPa | 0 mm | - | 10 W/m² | - |
| 1778153723 | 17.22° C | 96% | 1010.4 hPa | 0 mm | - | 8 W/m² | - |
| 1778153123 | 17.22° C | 96% | 1010.2 hPa | 0 mm | - | 24 W/m² | - |
| 1778152544 | 16.67° C | 96% | 1010.3 hPa | 0 mm | - | 11 W/m² | - |
| 1778151924 | 16.67° C | 96% | 1010.5 hPa | 0 mm | - | 6 W/m² | - |
| 1778151344 | 16.67° C | 96% | 1010.5 hPa | 0 mm | - | 2 W/m² | - |
| 1778150724 | 16.67° C | 96% | 1010.2 hPa | 0 mm | - | 6 W/m² | - |
| 1778150124 | 17.22° C | 96% | 1010.2 hPa | 0.25 mm | - | 2 W/m² | - |
* Rain latest hour (hover to see other rain measurements)
** Current wind speed in m/s (hover to see current wind gust speed)